Location: Quedlinburg
(51.7921°N, 11.1414°E)
Time: 08:11:55
(UTC+02:00)

RS-44 - Pass Details

Date: 22 March 2026
Orbit: 1175 x 1510 km, 82.5° (Epoch: 13 April)

Event Time Altitude Azimuth Distance (km) Brightness Sun altitude
Rises 01:13:58 0° 349° (NNW) 4,436 ? -36.5°
Reaches altitude 10° 01:16:49 10° 353° (N) 3,501 ? -36.4°
Maximum altitude 01:25:09 58° 72° (ENE) 1,683 ? -36.0°
Enters shadow 01:26:49 51° 110° (ESE) 1,806 ? -35.9°
